Fort Wayne Police Department
Fort Wayne Police Department
Emergencies Call: 911
Non-Emergencies: (260) 427-1222
report drug house

Daily Activity Logs

Activity Log for October 5, 2013 Community Search

Incident Time Nature Address
13F145852 00:04:21 30 TRAFFIC STOP 400 BROYLES BLVD N & ST JOE RD
13F145854 00:04:30 44 NUISANCE 4400 WHITEFORD LN
13F145855 00:06:27 911 HANG UP 1300 FRANKLIN AVE
13F145858 00:06:57 48 SUSPICIOUS 8300 LAMPLIGHTER CT
13F145857 00:08:42 25 PD ACCIDENT 2200 COLISEUM BLVD N & STATE BLVD
13F145856 00:10:09 48 SUSPICIOUS 5000 COVENTRY PKWY
13F145859 00:11:10 15 ASSIST 6200 ST JOE CENTER RD & MAPLECREST
13F145860 00:17:54 22I JUV INVEST 1500 BOONE ST
13F145861 00:19:05 22RN RUNAWAY 2100 HOBSON RD
13F145862 00:22:56 39U UNAUTHORIZE 2600 PRISCILLA LN
13F145867 00:23:37 25HS HIT SKIP 2000 COLISEUM BLVD N
13F145864 00:25:51 102,TX THREATS 3700 WASHINGTON BLVD E
13F145863 00:26:02 911 HANG UP 1800 JEFFERSON BLVD W
13F145865 00:27:26 25 PD ACCIDENT 1700 JEFFERSON BLVD W
13F145866 00:28:09 50IP BURG I/P 3000 BELLAIRE DR
13F145870 00:33:32 44LP 6200 ST JOE RD
13F145869 00:34:33 20 PROBLEM UNK 3700 CHESTNUT ST
13F145871 00:44:23 27 RECKLESS DRI 31600 I 69 NB
13F145872 00:48:23 101 OPEN DOOR 6500 LIMA RD
13F145873 00:49:07 46 DOMESTIC 4700 HEATHERWIND DR
13F145874 00:49:55 43 DISTURBANCE 900 COLISEUM BLVD E
13F145876 00:57:41 911 HANG UP 1400 WASHINGTON CENTER RD W
13F145875 00:57:58 911 HANG UP 800 DEWALD ST W
13F145877 00:58:18 46 DOMESTIC 200 COLLINS RD E
13F145879 01:01:00 44 NUISANCE 4200 TACOMA AVE
13F145878 01:01:36 103 UNWANTED 2400 FAIRFIELD AVE
13F145880 01:06:17 911 HANG UP 1500 WELLS ST
13F145881 01:11:56 43,62 900 WASHINGTON BLVD E
13F145882 01:15:17 30 TRAFFIC STOP 800 MADISON ST
13F145883 01:15:20 55,62 1400 WASHINGTON CENTER RD W
13F145886 01:26:57 46 DOMESTIC 800 BUCHANAN ST
13F145884 01:28:27 20 PROBLEM UNK 100 LEITH ST W
13F145885 01:30:01 48,36 5800 WESTCREEK BLVD
13F145887 01:30:25 46 DOMESTIC 6200 ST JOE RD
13F145888 01:33:36 62 PARTY ARMED 1400 CREIGHTON AVE E & REED ST
13F145889 01:39:46 911 HANG UP 2400 FAIRFIELD AVE
13F145890 01:40:17 911 HANG UP 200 RUDISILL BLVD E & CLINTON ST S
13F145891 01:48:23 63 CONTACT 5600 FOX MILL RUN
13F145892 01:52:59 48,35 2000 WARSAW ST & BUCHANAN ST
13F145893 01:54:45 911 HANG UP 700 LAWTON PL
13F145894 01:54:46 70 FIRE 7000 POINTE INVERNESS
13F145895 01:56:37 40A AUDIBLE 700 HARRISON ST S
13F145896 01:58:11 44 NUISANCE 3700 CENTRAL DR
13F145899 02:00:09 22RC RECOVERY 800 CURDES AVE
13F145897 02:00:38 103 UNWANTED 2400 WINTER ST
13F145898 02:04:17 65T SUICIDE THR 3100 WELLS ST
13F145901 02:07:33 46 DOMESTIC 800 BUCHANAN ST
13F145900 02:08:31 911 HANG UP 1700 WAYNE ST E
13F145903 02:14:36 25HS HIT SKIP 1700 HIGH ST
13F145902 02:26:40 46 DOMESTIC 5000 ROBERTA DR
13F145905 02:41:42 44LP 2500 FOX AVE & GRACE AVE
13F145904 02:41:56 40A AUDIBLE 5400 COVENTRY LN
13F145906 02:46:35 103 UNWANTED 900 WASHINGTON BLVD E
13F145907 02:54:30 28 DUI 5900 ILLINOIS RD
13F145908 02:56:30 48 SUSPICIOUS 900 WEBSTER ST & WAYNE ST W
13F145914 03:02:45 44LM 2700 RIDGEWAY DR
13F145909 03:04:25 22I JUV INVEST 400 ECKART ST & WARSAW ST
13F145910 03:06:33 30 TRAFFIC STOP 1700 CLINTON ST S & WALLACE ST E
13F145911 03:07:58 62 PARTY ARMED 900 COLISEUM BLVD E
13F145912 03:10:44 HARASSMENT 3500 HARRIS RD
13F145913 03:12:36 62 PARTY ARMED 1700 WAYNE ST E
13F145915 03:15:13 43 DISTURBANCE 3700 WINTER ST
13F145916 03:18:14 41,36 200 RUDISILL BLVD E
13F145919 03:21:25 46,96 1100 STATE BLVD W
13F145917 03:22:58 911 HANG UP 600 JEFFERSON BLVD E
13F145918 03:33:54 48 SUSPICIOUS 900 WASHINGTON BLVD E
13F145924 03:47:08 48 SUSPICIOUS 400 WALLEN HILLS DR
13F145921 03:48:12 911 HANG UP 2700 POINSETTE DR
13F145920 03:48:41 43 DISTURBANCE 4400 COLDWATER RD
13F145922 03:49:51 43 DISTURBANCE 5700 ST JOE RD
13F145925 03:51:20 43 DISTURBANCE 1600 SCHILLING AVE
13F145923 03:52:31 113 SHOTS FIRED 2700 HOAGLAND AVE
13F145926 03:59:12 43 DISTURBANCE 2600 BROADWAY
13F145927 04:01:56 46 DOMESTIC 5900 ST JOE CENTER RD
13F145928 04:31:32 26 PI ACCIDENT 30900 I 69 SB
13F145929 04:32:10 25 PD ACCIDENT 30500 I 69 SB
13F145930 04:37:13 63 CONTACT 5900 OAKMONT RD
13F145931 04:49:44 50JO 500 CHARLOTTE AVE
13F145932 04:54:52 103 UNWANTED 1300 CLINTON ST S
13F145933 05:07:17 911 HANG UP 1800 ECKART ST
13F145934 05:08:11 911 HANG UP 1300 WASHINGTON CENTER RD W
13F145935 05:11:43 65T SUICIDE THR 1300 BERRY ST E
13F145936 05:32:11 43 DISTURBANCE 3200 SCHELE AVE
13F145937 05:37:32 103 UNWANTED 500 JEFFERSON BLVD W
13F145938 05:41:46 911 HANG UP 4000 WINTER ST
13F145939 06:03:58 23 VANDALISM 4100 INDIANA AVE
13F145940 06:06:21 48 SUSPICIOUS 900 WEBSTER ST & WAYNE ST W
13F145941 06:20:41 911 HANG UP 6200 OLD TRAIL RD
13F145942 06:22:36 30 TRAFFIC STOP 3200 STELLHORN RD & HOBSON RD
13F145943 06:29:38 43 DISTURBANCE 3300 CHESTNUT ST
13F145944 06:54:13 96JO 6000 FAIRFIELD AVE
13F145945 06:57:39 18 WORK TRAFFIC 7300 ENGLE RD & JEFFERSON BLVD W
13F145946 07:09:43 30 TRAFFIC STOP 200 WASHINGTON BLVD W & WEBSTER ST
13F145947 07:25:25 46,96 7000 CHADWICK DR
13F145948 07:28:43 22RN RUNAWAY 600 FIFTH ST
13F145949 07:32:00 43 DISTURBANCE 2400 SMITH ST
13F145950 07:36:32 40A AUDIBLE 5800 ILLINOIS RD
13F145951 07:37:05 23,35 VAND VEH 6500 BELLEFIELD DR
13F145952 07:38:14 911 HANG UP 1200 PETTIT AVE E
13F145953 07:40:21 40A AUDIBLE 2100 GETZ RD
13F145961 08:08:02 50,ATTEMPTED 1000 CURDES AVE
13F145955 08:08:40 26 PI ACCIDENT 1000 TECUMSEH ST & LAKE AVE
13F145954 08:09:12 30 TRAFFIC STOP 7300 LIMA RD & COOK RD W
13F145956 08:23:07 911 HANG UP 1900 RIVER RUN TRL
13F145957 08:23:30 50 BURGLARY 3700 WENTWORTH DR
13F145958 08:29:32 40A AUDIBLE 1600 WABASH AVE
13F145959 08:34:50 14 WARRANT 1800 RIVER RUN TRL
13F145967 08:36:37 47 REMOVE ITEMS 600 ARCHER AVE
13F145960 08:44:21 25 PD ACCIDENT 1400 WELLS ST
13F145962 08:49:24 39 STOLEN VEHIC 600 FIFTH ST
13F145963 08:49:43 48,36 5600 COVENTRY LN
13F145966 08:49:49 17 MOTOR CHECK 3300 FERGUSON RD W
13F145964 08:50:35 911 HANG UP 1200 SHERWOOD TERR W
13F145965 08:51:33 40H HOLDUP ALRM 10400 ILLINOIS RD
13F145968 08:56:03 23,35 VAND VEH 600 DEWALD ST E
13F145969 08:57:58 50 BURGLARY 3900 WARSAW ST
13F145972 08:58:47 911 HANG UP 4400 ENGLE RIDGE DR
13F145970 09:00:51 46 DOMESTIC 2400 OTSEGO DR
13F145971 09:02:34 25 PD ACCIDENT 200 WASHINGTON BLVD W & WEBSTER ST
13F145973 09:09:58 26 PI ACCIDENT 4100 PARNELL AVE
13F145974 09:12:19 40 ALARM 10400 MAYSVILLE RD
13F145975 09:12:35 101 OPEN DOOR 200 PETTIT AVE E
13F145991 09:17:04 66 72 HOUR 2200 RANDALLIA DR
13F145982 09:23:35 17 MOTOR CHECK 8900 CONNEMARRO CT
13F145976 09:25:09 40A AUDIBLE 5400 MOELLER RD
13F145977 09:27:02 40A AUDIBLE 6300 LIMA RD
13F145978 09:29:05 101 OPEN DOOR 1300 MAYCREST DR
13F145979 09:35:33 40A AUDIBLE 3200 ST JOE CENTER RD
13F145980 09:37:55 129 7100 BLUE BEECH DR
13F145981 09:38:16 129 10900 BIRKDALE CT
13F145989 09:45:54 33J LOCKED OUT 400 MADISON ST
13F145984 09:47:48 33J LOCKED OUT 6300 JEFFERSON BLVD W
13F145986 09:50:38 911 HANG UP 4400 ENGLE RIDGE DR
13F145985 09:51:31 15 ASSIST 1400 STOPHLET ST
13F145987 09:52:12 51,35 4600 JASON DR
13F145988 09:53:04 HARASSMENT 1200 RIVERMET AVE
13F145992 09:56:48 40A AUDIBLE 5400 SOUTHERN CT
13F145990 09:56:58 48 SUSPICIOUS 200 BERRY ST E
13F145993 10:02:06 103 UNWANTED 1400 COLISEUM BLVD N & LAKE AVE
13F145994 10:05:56 40A AUDIBLE 5200 INDUSTRIAL RD
13F145996 10:13:26 40A AUDIBLE 1700 HIGH ST
13F145995 10:16:46 83 INFO REPORT 1500 PAULDING RD E
13F145997 10:22:21 50 BURGLARY 400 VIOLET CT
13F145998 10:25:56 40A AUDIBLE 3900 TURF LN
13F145999 10:34:41 40P PANIC ALARM 7900 WILLOWWOOD DR
13F146000 10:40:49 46 DOMESTIC 5200 FOREST AVE
13F146002 10:43:17 911 HANG UP 3400 MCKINNIE AVE
13F146001 10:44:16 51 THEFT 9500 WOODSTREAM DR
13F146003 10:52:37 911 HANG UP 700 ARCHER AVE
13F146004 11:01:11 25 PD ACCIDENT 3000 MAPLECREST RD & ALVAREZ DR
13F146005 11:13:57 43 DISTURBANCE 600 WINTERSET RD
13F146007 11:14:26 911 HANG UP 2400 JOHN ST
13F146006 11:15:05 25HS HIT SKIP 800 HAMILTON AVE
13F146008 11:16:41 46 DOMESTIC 1300 VANCE AVE
13F146009 11:25:09 50IP BURG I/P 2300 LYNN AVE
13F146011 11:27:20 911 HANG UP 500 CHARLOTTE AVE
13F146010 11:29:07 1 MEET 2100 OAKLEY ST
13F146012 11:35:25 25 PD ACCIDENT 5000 DECATUR RD
13F146013 11:39:03 23,35 VAND VEH 6700 BRADBURY AVE
13F146014 11:39:11 911 HANG UP 200 MAPLE GROVE AVE E
13F146015 11:57:43 113 SHOTS FIRED 8300 BRIDGEWAY DR
13F146018 12:00:54 46,96 2300 CLINTON ST N
13F146017 12:01:04 911 HANG UP 4500 BOWSER AVE
13F146016 12:01:32 51 THEFT 300 STATE BLVD W
13F146019 12:05:34 911 HANG UP 400 CALHOUN ST S
13F146020 12:05:47 25 PD ACCIDENT 4100 CLINTON ST N
13F146021 12:09:19 33,34 1100 HADLEY RD S & ILLINOIS RD
13F146023 12:13:18 43 DISTURBANCE 3200 SCHELE AVE
13F146068 12:13:56 50,ATTEMPTED 500 CHARLOTTE AVE
13F146024 12:16:31 48 SUSPICIOUS 1000 BUCHANAN ST
13F146025 12:20:10 911 HANG UP 2900 ABBOTT ST
13F146026 12:27:34 48,36 2300 INDIAN VILLAGE BLVD
13F146027 12:27:55 25 PD ACCIDENT 2200 HOBSON DR & STATE BLVD E
13F146028 12:31:23 16 PICK UP ITEM 1800 TILLMAN RD E
13F146094 12:33:24 50 BURGLARY 1600 ALABAMA AVE
13F146029 12:34:28 46 DOMESTIC 700 HOME AVE
13F146030 12:38:40 911 HANG UP 1000 BROADWAY
13F146034 12:40:23 101 OPEN DOOR 3800 SADDLE DR E
13F146031 12:42:49 51,35 2200 BUTLER RD
13F146032 12:43:13 46,96 2900 STERLING ST
13F146035 12:43:28 EMS 5100 NEVADA AVE
13F146033 12:47:14 23 VANDALISM 7500 JEFFERSON BLVD W
13F146036 12:53:20 911 HANG UP 800 HOME AVE
13F146037 12:54:22 46 DOMESTIC 4200 CENTRAL DR
13F146038 13:00:27 25 PD ACCIDENT 6600 LIMA RD
13F146039 13:03:26 43 DISTURBANCE 2600 BROADWAY
13F146065 13:04:50 17 MOTOR CHECK 1000 ORLANDO DR
13F146040 13:06:07 14 WARRANT 100 BAKER ST W
13F146041 13:08:02 911 HANG UP 6700 SHADOWBROOK CV
13F146042 13:10:38 16 PICK UP ITEM 1200 LIBERTY ST
13F146043 13:12:48 22RN RUNAWAY 700 HOME AVE
13F146044 13:12:58 48,36 1700 LINDLEY AVE & PARKVIEW AVE
13F146045 13:15:18 26HS PI HITSKIP 300 PUTNAM ST & WELLS ST
13F146046 13:15:23 27 RECKLESS DRI 4100 HESSEN CASSEL RD & MCKINNIE A
13F146047 13:19:09 44LB 300 JEFFERSON BLVD W
13F146048 13:23:14 40P PANIC ALARM 2300 TURNBERRY LN
13F146056 13:25:34 51,35 2100 COLISEUM BLVD W
13F146049 13:31:49 33,34 300 JEFFERSON BLVD W
13F146050 13:32:56 66 MENTALLY ILL 700 BROADWAY
13F146064 13:40:25 102 THREATS 00 MAIN ST E
13F146070 13:40:25 16,97 4100 ARDMORE AVE & ENGLE RD
13F146051 13:43:12 27 RECKLESS DRI 5500 JEFFERSON BLVD W & SOUTHBEND
13F146052 13:46:24 33 DISABLED VEH 31300 I 69 SB
13F146061 13:50:09 22I JUV INVEST 2100 GARDEN PARK DR
13F146057 13:50:42 62 PARTY ARMED 6400 BELLEFIELD DR
13F146071 13:52:13 39U UNAUTHORIZE 8100 CLINTON ST N
13F146055 13:52:20 20 PROBLEM UNK 2300 BOWSER AVE
13F146053 13:53:10 16V PICKUP VID 00 MAIN ST E
13F146059 13:53:26 48 SUSPICIOUS 1100 STATE BLVD W
13F146058 13:58:33 103 UNWANTED 4200 COLDWATER RD
13F146060 14:00:53 51,35 6400 WOODROCK DR
13F146062 14:01:54 48 SUSPICIOUS 3000 PRAIRIE GROVE DR
13F146063 14:02:49 25HS HIT SKIP 2000 JESSIE AVE
13F146066 14:07:13 HARASSMENT 1400 SPY RUN AVE
13F146067 14:09:50 16V PICKUP VID 00 MAIN ST E
13F146069 14:11:02 30 TRAFFIC STOP 2400 GETZ RD
13F146073 14:12:18 96JO 4400 KENILWORTH ST
13F146072 14:12:54 40A AUDIBLE 2000 BEACON ST
13F146074 14:15:36 30 TRAFFIC STOP 3900 STATE BLVD E & COLISEUM BLVD
13F146076 14:17:44 46,62 3600 DELRAY DR
13F146077 14:18:54 33,34 4900 LAFAYETTE ST S & DECATUR RD
13F146078 14:19:22 51,35 300 SUTTENFIELD AVE W
13F146079 14:24:09 43,62 3500 COLISEUM BLVD W
13F146080 14:24:29 911 HANG UP 200 CREIGHTON AVE E
13F146081 14:26:56 30 TRAFFIC STOP 7200 JEFFERSON BLVD W
13F146082 14:28:19 66 MENTALLY ILL 3900 OLD MILL RD
13F146087 14:37:35 17 MOTOR CHECK 300 LEITH ST E
13F146083 14:40:35 22I JUV INVEST 900 OSAGE ST & BURGESS ST
13F146085 14:43:05 911 HANG UP 1300 ELIZA ST
13F146084 14:43:07 83 INFO REPORT 5800 COLDWATER RD
13F146086 14:44:42 43 DISTURBANCE 6400 AMBROSIA CV
13F146088 14:45:53 51JO 10400 MAYSVILLE RD
13F146089 14:48:04 30 TRAFFIC STOP 600 RUDISILL BLVD W & SOUTHWAYNE A
13F146090 14:48:16 26 PI ACCIDENT 3800 CALHOUN ST S & RUDISILL BLVD
13F146091 14:49:55 63 CONTACT 6300 COLDWATER RD & I 69 NB
13F146092 14:53:33 43 DISTURBANCE 2300 LUDWIG RD W & GOINGS RD
13F146093 14:55:28 43 DISTURBANCE 700 COLISEUM BLVD E
13F146096 15:02:13 96JO 3300 COLISEUM BLVD W
13F146099 15:03:10 24 MISSING PERS 3800 FERGUSON RD W
13F146095 15:03:53 43 DISTURBANCE 4000 GAYWOOD DR
13F146097 15:12:37 43 DISTURBANCE 1600 FRANKLIN AVE & HUFFMAN ST
13F146101 15:15:11 33,34 1000 COLISEUM BLVD E & PARNELL AVE
13F146098 15:16:18 40A AUDIBLE 2900 MARDIGRAS LN
13F146100 15:17:28 911 HANG UP 7200 NORTHRIVER RD
13F146102 15:18:25 48,36 4800 ASHLAND DR
13F146103 15:23:15 51 THEFT 100 CUMBERLAND AVE
13F146104 15:26:06 26 PI ACCIDENT 1000 GOSHEN AVE & RUSSELL AVE
13F146106 15:29:01 46 DOMESTIC 3800 WAYNE TRACE
13F146105 15:29:09 33,34 4100 ARDMORE AVE & ENGLE RD
13F146107 15:30:45 911 HANG UP 3300 TILLMAN RD E
13F146108 15:32:20 46,96 7400 HICKORY CREEK DR
13F146109 15:33:02 911 HANG UP 3100 TRENTMAN AVE
13F146111 15:33:58 911 HANG UP 1000 GRACE AVE
13F146110 15:34:28 22I JUV INVEST 700 BROADWAY
13F146114 15:34:38 63 CONTACT 1100 WABASH AVE
13F146112 15:36:23 23 VANDALISM 100 CUMBERLAND AVE
13F146115 15:43:06 30 TRAFFIC STOP 1000 WILDWOOD AVE W
13F146116 15:44:32 51 THEFT 1100 PUTNAM ST
13F146117 15:44:45 63 CONTACT 500 BUCHANAN ST
13F146118 15:45:13 24 MISSING PERS 1100 MAIN ST W
13F146121 15:49:46 911 HANG UP 4800 FOREST AVE
13F146119 15:50:05 911 HANG UP 3100 BROADWAY
13F146120 15:50:44 51,35 1900 GETZ RD
13F146122 15:56:27 911 HANG UP 9200 MADINA PKWY
13F146123 15:59:52 46,96 2600 DEERWOOD DR
13F146124 16:01:19 34 TRAFF HAZARD 4300 COLDWATER RD & COLISEUM BLVD
13F146125 16:03:49 27 RECKLESS DRI 30200 I 69 NB
13F146126 16:05:20 911 HANG UP 8100 ROCKY GLEN PL
13F146127 16:05:51 66 MENTALLY ILL 5700 HARRISON ST S
13F146128 16:10:45 25 PD ACCIDENT 4300 COLDWATER RD & COLISEUM BLVD
13F146134 16:11:44 11C CAGE CAR 5300 COLDWATER RD
13F146129 16:12:59 48 SUSPICIOUS 6500 LIMA RD & LUDWIG RD W
13F146130 16:13:13 46 DOMESTIC 4200 FIELDBROOK PASS
13F146131 16:15:26 HARASSMENT 4500 SPEEDWAY DR
13F146132 16:17:25 25 PD ACCIDENT 800 BROADWAY & WAYNE ST W
13F146133 16:21:48 30 TRAFFIC STOP 300 JEFFERSON BLVD W
13F146136 16:26:06 27 RECKLESS DRI 2000 TAYLOR ST & BROOKLYN AVE
13F146135 16:26:45 33,34 8200 JEFFERSON BLVD W & I 69 NB
13F146137 16:37:20 103 UNWANTED 2600 BROADWAY
13F146138 16:37:38 911 HANG UP 4400 ENGLE RIDGE DR
13F146144 16:39:52 33,34 300 WASHINGTON CENTER RD E & COLDW
13F146139 16:40:17 26 PI ACCIDENT 1500 ST JOE CENTER RD & CLINTON ST
13F146140 16:41:32 25HS HIT SKIP 5700 COVENTRY LN
13F146141 16:43:37 43 DISTURBANCE 3400 CLINTON ST N
13F146142 16:44:42 1 MEET 6000 BRANDY CHASE CV
13F146158 16:47:29 14 WARRANT 1100 STATE BLVD W
13F146143 16:48:30 51,35 10300 BLUFFTON RD
13F146145 16:51:34 911 HANG UP 5200 STATE BLVD E
13F146150 16:54:53 25 PD ACCIDENT 1400 VERMONT AVE & FLORIDA DR
13F146146 16:54:59 55 FIGHT 1000 HIGH ST & ST MARYS AVE
13F146148 16:56:50 43 DISTURBANCE 5800 LIMA RD & WASHINGTON CENTER R
13F146147 16:57:41 51 THEFT 5500 LOIS LN
13F146149 16:58:36 101 OPEN DOOR 6100 HOLGATE DR
13F146151 17:00:29 51,35 2300 TERRACE RD
13F146153 17:01:16 42 INTOX PERSON 1100 STATE BLVD W
13F146152 17:04:10 38 LOST/STOLEN 2900 NEW HAVEN AVE
13F146154 17:04:58 911 HANG UP 1800 WARREN ST & NEW HAVEN AVE
13F146155 17:09:31 43 DISTURBANCE 10000 LIMA RD
13F146156 17:10:34 58 SHOOTING 800 WOODVIEW BLVD
13F146157 17:14:01 30 TRAFFIC STOP 1100 SCOTT AVE & BROADWAY
13F146159 17:14:48 103 UNWANTED 4900 GUAINE CT
13F146160 17:16:48 40A AUDIBLE 5200 HANNA ST S
13F146166 17:17:42 39 STOLEN VEHIC 100 PONTIAC ST W & HARRISON ST S
13F146161 17:17:52 43 DISTURBANCE 800 COLISEUM BLVD N
13F146164 17:20:21 46 DOMESTIC 200 CROWN LN E
13F146162 17:21:24 911 HANG UP 500 DUPONT RD E
13F146196 17:23:45 44LM 200 LEITH ST W
13F146163 17:23:49 30 TRAFFIC STOP 1200 WASHINGTON BLVD W & NELSON ST
13F146165 17:25:49 97 FOUND ITEMS 00 MAIN ST E
13F146169 17:29:15 911 HANG UP 3200 SEQUAYAH PASS
13F146167 17:30:06 11C CAGE CAR 4200 COLDWATER RD
13F146171 17:31:26 108 FOLLOWUP 3800 LAFAYETTE ST S
13F146168 17:31:32 27 RECKLESS DRI 400 WASHINGTON BLVD W & FAIRFIELD
13F146204 17:31:46 48,36 7500 DECATUR RD
13F146177 17:32:28 50,ATTEMPTED 900 LIBERTY ST
13F146170 17:35:01 911 HANG UP 4400 ENGLE RIDGE DR
13F146179 17:35:40 1 MEET 1900 COLISEUM BLVD N
13F146174 17:36:44 911 HANG UP 6200 DERBYSHIRE DR
13F146172 17:38:07 96JO 5800 LOIS LN
13F146173 17:38:52 40P PANIC ALARM 3300 MCKINNIE AVE
13F146176 17:39:55 40A AUDIBLE 1100 LAKE AVE
13F146175 17:42:02 38 LOST/STOLEN 3600 WINTER ST
13F146178 17:47:08 911 HANG UP 2300 COLISEUM BLVD E & CRESCENT AV
13F146180 17:53:30 42 INTOX PERSON 2600 ANTHONY BLVD S & PONTIAC ST E
13F146185 18:02:30 39 STOLEN VEHIC 7200 BELLWOOD DR
13F146182 18:02:31 47 REMOVE ITEMS 1100 FRANKLIN AVE
13F146181 18:02:50 48 SUSPICIOUS 4000 WEISSER PARK AVE & BAXTER ST
13F146183 18:04:45 46,62 400 THREE RIVERS E
13F146184 18:06:57 911 HANG UP 1600 DARIEN DR
13F146187 18:09:50 40H HOLDUP ALRM 2200 PENNSYLVANIA ST
13F146186 18:11:46 23,35 VAND VEH 4900 NASSAU DR
13F146188 18:12:47 43 DISTURBANCE 7100 BLUFFTON RD & CHURCH ST
13F146189 18:16:18 62 PARTY ARMED 5300 HOAGLAND AVE
13F146191 18:18:10 911 HANG UP 8200 FIELDCREST CT
13F146190 18:18:55 26HS PI HITSKIP 3100 ADAMS ST & EVANS ST
13F146192 18:19:44 48 SUSPICIOUS 1300 HILLEGAS RD S & ILLINOIS RD
13F146193 18:24:26 64 NOT SEEN 1200 CALIFORNIA RD E
13F146194 18:25:21 22N CHILD NEGLE 3600 COLEMAN AVE
13F146195 18:27:56 911 HANG UP 1100 BARR ST S
13F146197 18:31:44 911 HANG UP 8800 SAKADEN PKWY
13F146198 18:34:49 103 UNWANTED 4200 BEAVER AVE
13F146199 18:36:18 46 DOMESTIC 1700 CORTLAND AVE
13F146200 18:40:15 102,TX THREATS 4500 BECKSTEIN DR
13F146201 18:41:29 48 SUSPICIOUS 4100 ILLINOIS RD
13F146202 18:43:59 27 RECKLESS DRI 2500 THOMPSON AVE
13F146206 18:44:31 48 SUSPICIOUS 7600 PREAKNESS CV
13F146203 18:45:49 101 OPEN DOOR 2400 FOX AVE
13F146205 18:47:14 51 THEFT 1300 SPRING ST
13F146207 18:49:15 911 HANG UP 1100 BURGESS ST
13F146208 18:50:22 101 OPEN DOOR 800 HUESTIS AVE
13F146209 18:52:12 911 HANG UP 2200 FAIRFIELD AVE
13F146210 18:56:26 103 UNWANTED 1600 SPY RUN AVE
13F146211 18:58:54 30 TRAFFIC STOP 4400 ST JOE CENTER RD
13F146212 18:59:23 46 DOMESTIC 4000 BUELL DR
13F146213 19:03:41 66 MENTALLY ILL 1200 ANTHONY BLVD N
13F146215 19:06:21 911 HANG UP 600 CREIGHTON AVE E
13F146214 19:06:39 15 ASSIST 1600 GOSHEN AVE & HARVARD BLVD
13F146216 19:14:15 911 HANG UP 5800 FAIRFIELD AVE
13F146217 19:15:53 16V PICKUP VID 00 MAIN ST E
13F146220 19:16:02 44LM 3000 HOLTON AVE
13F146219 19:18:02 11C CAGE CAR 4200 COLDWATER RD
13F146218 19:18:17 34 TRAFF HAZARD 6000 JEFFERSON BLVD W & GETZ RD
13F146222 19:22:57 16,97 11300 BETHEL RD
13F146221 19:28:51 48 SUSPICIOUS 1100 STOPHLET ST & COLLEGE ST
13F146223 19:33:20 46,96 1600 REED RD
13F146224 19:35:40 911 HANG UP 1200 FAYETTE DR
13F146225 19:38:14 33 DISABLED VEH 8200 JEFFERSON BLVD W & I 69 NB
13F146226 19:38:57 46 DOMESTIC 4100 MOORFIELD LN
13F146227 19:40:17 103 UNWANTED 3500 COLISEUM BLVD W
13F146228 19:50:43 911 HANG UP 1100 BARR ST S
13F146231 19:51:36 16,97 500 COLISEUM BLVD E
13F146229 19:58:51 24 MISSING PERS 2200 HOBSON RD
13F146230 19:59:03 25 PD ACCIDENT 7100 CLINTON ST N & GARDEN PARK DR
13F146232 20:06:05 911 HANG UP 7900 SERENITY DR
13F146236 20:16:05 25HS HIT SKIP 6100 BUNT DR
13F146234 20:16:24 46,96 11100 PARKVIEW PLAZA DR
13F146233 20:19:51 40A AUDIBLE 10100 MESA GLEN CT
13F146235 20:20:50 63 CONTACT 2500 WEST DR
13F146237 20:30:31 34 TRAFF HAZARD 2400 WESTBROOK DR
13F146238 20:34:39 16V PICKUP VID 00 MAIN ST E
13F146239 20:38:50 911 HANG UP 4600 FURGE DR
13F146240 20:41:40 63 CONTACT 2200 ST JOE CENTER RD
13F146242 20:44:41 96JO 1600 WASHINGTON BLVD E
13F146241 20:44:44 41 MAN DOWN 1400 THIRD ST
13F146243 20:44:47 48 SUSPICIOUS 7500 ANTHONY BLVD S
13F146244 20:53:29 96JO 2500 MINER ST
13F146245 20:53:56 911 HANG UP 3300 COLISEUM BLVD W
13F146246 20:54:11 43,62 2800 EVANS ST
13F146250 20:55:31 911 HANG UP 3000 ELMDALE DR
13F146252 20:57:20 911 HANG UP 1800 EMBASSY DR
13F146249 20:59:25 911 HANG UP 2300 EUCLID AVE & DIAMOND ST
13F146254 21:00:16 63 CONTACT 500 FOSTER PKWY W & ARLINGTON AVE
13F146247 21:01:43 46,96 1600 FRANKLIN AVE
13F146251 21:03:02 28 DUI 11800 LIMA RD & CARROLL RD
13F146253 21:03:49 48 SUSPICIOUS 3100 OLIVER ST
13F146248 21:04:00 129 2900 ELMDALE DR
13F146255 21:06:26 102,TX THREATS 1000 SKYLINE PASS
13F146257 21:12:28 63 CONTACT 6600 JEFFERSON BLVD W
13F146256 21:13:17 103 UNWANTED 3600 FELICIAN ST
13F146258 21:18:44 25 PD ACCIDENT 3700 COLDWATER RD & CLINTON ST N
13F146259 21:20:26 25 PD ACCIDENT 3200 STELLHORN RD & HOBSON RD
13F146260 21:29:52 96IP 3700 WASHINGTON BLVD E
13F146262 21:35:05 101 OPEN DOOR 4800 TACOMA AVE
13F146261 21:35:36 16V PICKUP VID 00 MAIN ST E
13F146270 21:35:47 44LM 9100 LIMA RD
13F146266 21:37:05 911 HANG UP 4100 DIPLOMAT PLAZA ENTR
13F146263 21:37:11 129 3500 HANNA ST S
13F146264 21:37:14 911 HANG UP 1000 BROADWAY
13F146265 21:39:00 25 PD ACCIDENT 2500 SPY RUN AVE
13F146268 21:43:37 34 TRAFF HAZARD 7600 LESWOOD CT
13F146267 21:45:13 51JO 11200 EAGLE CREST TRL
13F146269 21:51:37 46,96 1300 WASHINGTON CENTER RD W
13F146291 21:55:15 63 CONTACT 900 COOK RD E
13F146271 22:03:35 30 TRAFFIC STOP 30900 I 69 NB
13F146272 22:05:47 50IP BURG I/P 7600 STONEWALL RUN
13F146273 22:06:07 65T SUICIDE THR 5600 MCCLELLAN ST
13F146274 22:06:10 11C CAGE CAR 10400 MAYSVILLE RD
13F146275 22:10:06 43 DISTURBANCE 4100 HESSEN CASSEL RD
13F146277 22:16:05 25HS HIT SKIP 2400 JEFFERSON BLVD W
13F146276 22:17:13 99 NARCOTICS 900 SCHICK ST
13F146278 22:17:18 911 HANG UP 1600 SPY RUN AVE & TENNESSEE AVE
13F146279 22:18:34 43 DISTURBANCE 4000 HESSEN CASSEL RD
13F146280 22:22:09 33,34 5400 LIMA RD & I 69 NB
13F146281 22:22:16 30 TRAFFIC STOP 7300 COLDWATER RD & COOK RD E
13F146283 22:23:08 27 RECKLESS DRI 30400 I 69 NB
13F146282 22:24:11 30 TRAFFIC STOP 6200 STATE BLVD E & MAPLECREST RD
13F146284 22:24:46 48 SUSPICIOUS 1600 ST MARYS AVE & HUFFMAN ST
13F146285 22:25:37 40A AUDIBLE 4000 JEFFERSON BLVD W
13F146289 22:32:45 96 BATTERY 700 BROADWAY
13F146286 22:33:46 25 PD ACCIDENT 2400 JEFFERSON BLVD W
13F146287 22:35:19 30 TRAFFIC STOP 7300 LAFAYETTE ST S & TILLMAN RD E
13F146288 22:39:30 25HS HIT SKIP 900 CLINTON ST S & WASHINGTON BLVD
13F146290 22:45:34 46 DOMESTIC 800 EDGEWATER AVE
13F146293 22:54:47 40A AUDIBLE 2200 COLISEUM BLVD W
13F146292 22:55:24 43 DISTURBANCE 2400 OLIVER ST
13F146295 22:56:54 911 HANG UP 2100 WEISSER PARK AVE
13F146294 22:58:45 48 SUSPICIOUS 700 COLISEUM BLVD E
13F146296 23:01:03 42 INTOX PERSON 7300 STATE BLVD E & LAHMEYER RD
13F146297 23:02:19 43 DISTURBANCE 5800 HARRISON ST S & COX DR W
13F146298 23:04:05 44LP 2400 ABBEY DR
13F146299 23:08:13 44LP 2000 ARDMORE AVE
13F146300 23:10:54 48 SUSPICIOUS 5300 GAYWOOD DR
13F146301 23:11:55 63 CONTACT 6000 HANNA ST S
13F146302 23:13:39 48 SUSPICIOUS 5600 SMITH ST
13F146303 23:13:46 46 DOMESTIC 2400 JEFFERSON BLVD W
13F146304 23:15:33 44LP 400 COX DR W & FAIRFIELD AVE
13F146312 23:16:47 44LM 5100 MAPLECREST RD
13F146305 23:20:47 30 TRAFFIC STOP 200 COLISEUM BLVD W & SPEEDWAY DR
13F146306 23:21:00 26 PI ACCIDENT 6200 CLINTON ST N & BETHANY LN
13F146307 23:27:58 30 TRAFFIC STOP 3600 HILLEGAS RD & INDEPENDENCE DR
13F146308 23:28:34 51 THEFT 8600 LAKESIDE DR
13F146309 23:30:21 46 DOMESTIC 8000 AUBURN RD
13F146328 23:34:57 45 NEIGHBORHOOD 2300 DEERWOOD DR
13F146310 23:36:56 911 HANG UP 3200 LAFAYETTE ST S
13F146311 23:38:02 63 CONTACT 2300 SMITH ST
13F146315 23:41:05 911 HANG UP 3400 WELLS ST
13F146314 23:44:22 48 SUSPICIOUS 1000 KINSMOOR AVE
13F146313 23:44:59 38A LOST/ARTICL 1100 WASHINGTON CENTER RD W
13F146316 23:47:49 911 HANG UP 1100 SPRING ST
13F146317 23:48:34 911 HANG UP 2100 HOBSON RD
13F146318 23:51:11 40A AUDIBLE 2500 FERGUSON RD W
13F146319 23:58:07 41 MAN DOWN 1200 HARRISON ST N
13F146322 23:58:58 14 WARRANT 1300 VANCE AVE
Amber Alert

All-America City